Flag for Germany Weather past 2 weeks in Neuwied, Rhineland-Palatinate, Germany

Now
36 °F

Chilly.


Feels Like: 29 °F
Forecast: 30 / 46 °F
Wind: 9 mph from North

Location: Buechel

Current Time: Feb 27, 2015 at 3:16:19 PM

Latest Report: Feb 27, 2015 at 2:20 PM


Visibility: 6 mi

Pressure: 29.95 "Hg

Humidity: 87%

Dew point: 32 °F

Location of NeuwiedLocation

Historic Weather in Neuwied — Graph

°F

Neuwied temperature yesterday

Maximum temperature yesterday: 41 °F (at 12:20 PM)
Minimum temperature yesterday: 36 °F (at 12:20 AM)
Average temperature yesterday: 38 °F

Past Weeks' High & Low Weather Summary

 TemperatureHumidityPressure
High45 °F (Feb 20, 4:20 PM)100% (Feb 12, 1:02 PM)30.69 "Hg (Feb 12, 1:02 PM)
Low27 °F (Feb 12, 11:20 PM)56% (Feb 22, 1:20 PM)29.39 "Hg (Feb 21, 4:20 AM)
Average33 °F92%29.96 "Hg
* Reported Feb 12 1:02 PM — Feb 27 1:20 PM, Neuwied, Weather by CustomWeather, © 2015

Note: Actual official high and low records may vary slightly from our data, if they occured in-between our weather recording intervals... More about our weather records

Advertising

Neuwied weather history for previous 24 hours

 ConditionsComfort  
Time TempWeatherWind HumidityBarometerVisibility
1:20 PM
Fri, Feb 27
37 °FChilly.12 mph87%29.92 "HgN/A
12:45 PM37 °FBroken clouds.13 mph87%29.92 "Hg5 mi
12:20 PM36 °FBroken clouds.9 mph93%29.92 "Hg4 mi
11:20 AM36 °FPartly sunny.15 mph93%29.89 "HgN/A
10:20 AM36 °FPartly sunny.12 mph93%29.86 "HgN/A
9:20 AM34 °FLight rain. Partly sunny.17 mph93%29.80 "Hg4 mi
8:20 AM34 °FLight snow. Fog.15 mph93%29.80 "Hg2 mi
7:20 AM36 °FLight rain. Fog.13 mph93%29.77 "Hg2 mi
6:20 AM37 °FLight rain. Fog.10 mph100%29.74 "Hg2 mi
5:20 AM37 °FRain. Fog.5 mph100%29.74 "Hg1 mi
4:20 AM37 °FRain. Fog.5 mph100%29.74 "Hg1 mi
3:20 AM37 °FChilly.6 mph100%29.74 "Hg0 mi
2:20 AM37 °FChilly.7 mph100%29.77 "Hg1 mi
1:20 AM37 °FChilly.10 mph100%29.77 "Hg1 mi
12:20 AM37 °FChilly.9 mph100%29.80 "Hg1 mi
11:20 PM
Thu, Feb 26
37 °FChilly.9 mph100%29.80 "Hg1 mi
10:20 PM37 °FChilly.10 mph100%29.83 "Hg2 mi
9:20 PM37 °FChilly.10 mph100%29.86 "Hg2 mi
8:20 PM39 °FChilly.12 mph87%29.89 "HgN/A
7:20 PM39 °FChilly.9 mph87%29.92 "HgN/A
6:20 PM39 °FChilly.9 mph87%29.92 "HgN/A
5:20 PM41 °FBroken clouds.9 mph81%29.95 "HgN/A
4:20 PM41 °FBroken clouds.10 mph81%29.95 "HgN/A
3:20 PM41 °FBroken clouds.12 mph81%29.98 "HgN/A
Weather by CustomWeather, © 2015

See weather overviewHow to use our weather pages